Time,TemperatureF,DewpointF,PressureIn,WindDirection,WindDirectionDegrees,WindSpeedMPH,WindSpeedGustMPH,Humidity,HourlyPrecipIn,Conditions,Clouds,dailyrainin,SolarRadiationWatts/m^2,SoftwareType,DateUTC
2013-02-01 00:03:00,-10.8,-16.2,30.48,West,272,3.0,4.0,76,0.00,,,0.00,0.0,meteohub,2013-02-01 06:03:00,
2013-02-01 00:08:00,-10.8,-16.2,30.48,West,273,2.0,4.0,76,0.00,,,0.00,0.0,meteohub,2013-02-01 06:08:00,
2013-02-01 00:13:00,-10.8,-16.2,30.48,West,261,1.0,4.0,76,0.00,,,0.00,0.0,meteohub,2013-02-01 06:13:00,
2013-02-01 00:18:00,-11.0,-16.4,30.48,West,267,2.0,4.0,76,0.00,,,0.00,0.0,meteohub,2013-02-01 06:18:00,
2013-02-01 00:23:00,-11.0,-16.4,30.48,West,271,2.0,3.0,76,0.00,,,0.00,0.0,meteohub,2013-02-01 06:23:00,
2013-02-01 00:28:00,-11.0,-16.4,30.48,West,271,0.0,3.0,76,0.00,,,0.00,0.0,meteohub,2013-02-01 06:28:00,
2013-02-01 00:33:00,-11.0,-16.4,30.48,West,271,2.0,3.0,76,0.00,,,0.00,0.0,meteohub,2013-02-01 06:33:00,
2013-02-01 00:38:00,-11.2,-16.6,30.48,West,271,1.0,3.0,76,0.00,,,0.00,0.0,meteohub,2013-02-01 06:38:00,
2013-02-01 00:44:00,-11.4,-16.8,30.48,West,264,2.0,3.0,76,0.00,,,0.00,0.0,meteohub,2013-02-01 06:44:00,
2013-02-01 00:48:00,-11.4,-16.6,30.48,West,264,1.0,3.0,77,0.00,,,0.00,0.0,meteohub,2013-02-01 06:48:00,
2013-02-01 00:54:00,-11.4,-16.6,30.48,West,264,1.0,3.0,77,0.00,,,0.00,0.0,meteohub,2013-02-01 06:54:00,
2013-02-01 00:59:00,-11.6,-17.0,30.48,West,264,2.0,3.0,76,0.00,,,0.00,0.0,meteohub,2013-02-01 06:59:00,
2013-02-01 01:04:00,-11.6,-16.8,30.48,West,264,1.0,3.0,77,0.00,,,0.00,0.0,meteohub,2013-02-01 07:04:00,
2013-02-01 01:09:00,-11.6,-16.8,30.48,West,264,2.0,3.0,77,0.00,,,0.00,0.0,meteohub,2013-02-01 07:09:00,
2013-02-01 01:14:00,-11.7,-17.0,30.48,West,264,0.0,3.0,77,0.00,,,0.00,0.0,meteohub,2013-02-01 07:14:00,
2013-02-01 01:19:00,-11.7,-17.0,30.48,West,264,0.0,3.0,77,0.00,,,0.00,0.0,meteohub,2013-02-01 07:19:00,
2013-02-01 01:24:00,-11.7,-17.0,30.48,West,267,2.0,3.0,77,0.00,,,0.00,0.0,meteohub,2013-02-01 07:24:00,
2013-02-01 01:29:00,-11.7,-17.0,30.48,West,267,0.0,4.0,77,0.00,,,0.00,0.0,meteohub,2013-02-01 07:29:00,
2013-02-01 01:34:00,-11.7,-17.0,30.48,West,267,0.0,4.0,77,0.00,,,0.00,0.0,meteohub,2013-02-01 07:34:00,
2013-02-01 01:39:00,-11.7,-17.0,30.48,West,267,2.0,4.0,77,0.00,,,0.00,0.0,meteohub,2013-02-01 07:39:00,
2013-02-01 01:44:00,-11.9,-17.1,30.48,West,267,2.0,2.0,77,0.00,,,0.00,0.0,meteohub,2013-02-01 07:44:00,
2013-02-01 01:49:00,-11.9,-17.1,30.48,West,267,0.0,2.0,77,0.00,,,0.00,0.0,meteohub,2013-02-01 07:49:00,
2013-02-01 01:54:00,-11.9,-17.1,30.48,West,267,1.0,2.0,77,0.00,,,0.00,0.0,meteohub,2013-02-01 07:54:00,
2013-02-01 01:59:00,-11.9,-17.1,30.48,West,267,2.0,2.0,77,0.00,,,0.00,0.0,meteohub,2013-02-01 07:59:00,
2013-02-01 02:04:00,-11.9,-17.1,30.48,WSW,254,1.0,4.0,77,0.00,,,0.00,0.0,meteohub,2013-02-01 08:04:00,
2013-02-01 02:09:00,-11.9,-17.1,30.48,WSW,254,1.0,4.0,77,0.00,,,0.00,0.0,meteohub,2013-02-01 08:09:00,
2013-02-01 02:14:00,-11.9,-17.1,30.48,WSW,254,0.0,4.0,77,0.00,,,0.00,0.0,meteohub,2013-02-01 08:14:00,
2013-02-01 02:19:00,-11.9,-17.1,30.48,WSW,254,2.0,3.0,77,0.00,,,0.00,0.0,meteohub,2013-02-01 08:19:00,
2013-02-01 02:24:00,-11.9,-17.1,30.49,West,261,2.0,2.0,77,0.00,,,0.00,0.0,meteohub,2013-02-01 08:24:00,
2013-02-01 02:29:00,-11.9,-17.1,30.49,West,261,1.0,3.0,77,0.00,,,0.00,0.0,meteohub,2013-02-01 08:29:00,
2013-02-01 02:34:00,-11.9,-17.1,30.49,West,266,2.0,3.0,77,0.00,,,0.00,0.0,meteohub,2013-02-01 08:34:00,
2013-02-01 02:39:00,-11.9,-17.1,30.49,West,263,2.0,4.0,77,0.00,,,0.00,0.0,meteohub,2013-02-01 08:39:00,
2013-02-01 02:44:00,-11.9,-17.1,30.49,WSW,246,1.0,4.0,77,0.00,,,0.00,0.0,meteohub,2013-02-01 08:44:00,
2013-02-01 02:49:00,-11.9,-17.1,30.49,WSW,257,2.0,4.0,77,0.00,,,0.00,0.0,meteohub,2013-02-01 08:49:00,
2013-02-01 02:54:00,-11.9,-17.1,30.48,WSW,257,1.0,4.0,77,0.00,,,0.00,0.0,meteohub,2013-02-01 08:54:00,
2013-02-01 02:59:00,-12.1,-17.3,30.48,WSW,257,2.0,4.0,77,0.00,,,0.00,0.0,meteohub,2013-02-01 08:59:00,
2013-02-01 03:04:00,-11.9,-17.1,30.49,West,263,2.0,4.0,77,0.00,,,0.00,0.0,meteohub,2013-02-01 09:04:00,
2013-02-01 03:09:00,-12.1,-17.3,30.49,West,268,2.0,4.0,77,0.00,,,0.00,0.0,meteohub,2013-02-01 09:09:00,
2013-02-01 03:14:00,-12.1,-17.3,30.48,West,280,1.0,4.0,77,0.00,,,0.00,0.0,meteohub,2013-02-01 09:14:00,
2013-02-01 03:19:00,-12.1,-17.3,30.48,West,280,1.0,4.0,77,0.00,,,0.00,0.0,meteohub,2013-02-01 09:19:00,
2013-02-01 03:24:00,-12.1,-17.3,30.48,West,280,1.0,4.0,77,0.00,,,0.00,0.0,meteohub,2013-02-01 09:24:00,
2013-02-01 03:29:00,-12.1,-17.3,30.48,West,280,2.0,4.0,77,0.00,,,0.00,0.0,meteohub,2013-02-01 09:29:00,
2013-02-01 03:34:00,-12.3,-17.5,30.48,West,266,2.0,2.0,77,0.00,,,0.00,0.0,meteohub,2013-02-01 09:34:00,
2013-02-01 03:39:00,-12.1,-17.3,30.48,West,266,2.0,3.0,77,0.00,,,0.00,0.0,meteohub,2013-02-01 09:39:00,
2013-02-01 03:44:00,-12.1,-17.3,30.48,West,266,2.0,3.0,77,0.00,,,0.00,0.0,meteohub,2013-02-01 09:44:00,
2013-02-01 03:49:00,-12.1,-17.3,30.48,West,266,2.0,3.0,77,0.00,,,0.00,0.0,meteohub,2013-02-01 09:49:00,
2013-02-01 03:54:00,-12.1,-17.3,30.48,West,266,0.0,3.0,77,0.00,,,0.00,0.0,meteohub,2013-02-01 09:54:00,
2013-02-01 03:59:00,-12.1,-17.3,30.48,West,266,0.0,3.0,77,0.00,,,0.00,0.0,meteohub,2013-02-01 09:59:00,
2013-02-01 04:04:00,-12.1,-17.3,30.48,West,266,0.0,3.0,77,0.00,,,0.00,0.0,meteohub,2013-02-01 10:04:00,
2013-02-01 04:09:00,-12.3,-17.7,30.47,West,266,0.0,2.0,76,0.00,,,0.00,0.0,meteohub,2013-02-01 10:09:00,
2013-02-01 04:14:00,-12.3,-17.7,30.48,West,266,0.0,2.0,76,0.00,,,0.00,0.0,meteohub,2013-02-01 10:14:00,
2013-02-01 04:19:00,-12.3,-17.7,30.48,West,266,0.0,0.0,76,0.00,,,0.00,0.0,meteohub,2013-02-01 10:19:00,
2013-02-01 04:24:00,-12.5,-17.9,30.47,West,266,0.0,0.0,76,0.00,,,0.00,0.0,meteohub,2013-02-01 10:24:00,
2013-02-01 04:29:00,-12.5,-17.9,30.47,West,266,0.0,0.0,76,0.00,,,0.00,0.0,meteohub,2013-02-01 10:29:00,
2013-02-01 04:34:00,-12.6,-17.9,30.47,West,266,0.0,1.0,77,0.00,,,0.00,0.0,meteohub,2013-02-01 10:34:00,
2013-02-01 04:39:00,-12.6,-18.0,30.47,West,266,0.0,1.0,76,0.00,,,0.00,0.0,meteohub,2013-02-01 10:39:00,
2013-02-01 04:44:00,-12.6,-17.9,30.47,West,266,0.0,1.0,77,0.00,,,0.00,0.0,meteohub,2013-02-01 10:44:00,
2013-02-01 04:49:00,-12.6,-17.9,30.47,West,266,0.0,0.0,77,0.00,,,0.00,0.0,meteohub,2013-02-01 10:49:00,
2013-02-01 04:54:00,-12.8,-18.0,30.47,West,266,0.0,0.0,77,0.00,,,0.00,0.0,meteohub,2013-02-01 10:54:00,
2013-02-01 04:59:00,-12.8,-18.0,30.47,West,266,0.0,0.0,77,0.00,,,0.00,0.0,meteohub,2013-02-01 10:59:00,
2013-02-01 05:04:00,-12.8,-18.0,30.47,West,266,0.0,0.0,77,0.00,,,0.00,0.0,meteohub,2013-02-01 11:04:00,
2013-02-01 05:09:00,-13.0,-18.2,30.47,West,266,0.0,0.0,77,0.00,,,0.00,0.0,meteohub,2013-02-01 11:09:00,
2013-02-01 05:14:00,-13.2,-18.4,30.47,West,266,0.0,0.0,77,0.00,,,0.00,0.0,meteohub,2013-02-01 11:14:00,
2013-02-01 05:19:00,-13.2,-18.0,30.47,West,266,0.0,0.0,78,0.00,,,0.00,0.0,meteohub,2013-02-01 11:19:00,
2013-02-01 05:24:00,-13.2,-18.0,30.46,West,266,0.0,0.0,78,0.00,,,0.00,0.0,meteohub,2013-02-01 11:24:00,
2013-02-01 05:29:00,-13.4,-18.2,30.46,West,266,0.0,0.0,78,0.00,,,0.00,0.0,meteohub,2013-02-01 11:29:00,
2013-02-01 05:34:00,-13.4,-18.2,30.46,West,266,0.0,0.0,78,0.00,,,0.00,0.0,meteohub,2013-02-01 11:34:00,
2013-02-01 05:39:00,-13.4,-18.2,30.46,West,266,0.0,0.0,78,0.00,,,0.00,0.0,meteohub,2013-02-01 11:39:00,
2013-02-01 05:44:00,-13.4,-18.2,30.45,West,266,0.0,0.0,78,0.00,,,0.00,0.0,meteohub,2013-02-01 11:44:00,
2013-02-01 05:49:00,-13.5,-18.4,30.45,West,266,0.0,0.0,78,0.00,,,0.00,0.0,meteohub,2013-02-01 11:49:00,
2013-02-01 05:55:00,-13.5,-18.4,30.45,West,266,0.0,0.0,78,0.00,,,0.00,0.0,meteohub,2013-02-01 11:55:00,
2013-02-01 06:00:00,-13.5,-18.4,30.45,West,266,0.0,0.0,78,0.00,,,0.00,0.0,meteohub,2013-02-01 12:00:00,
2013-02-01 06:04:00,-13.5,-18.4,30.45,West,266,0.0,0.0,78,0.00,,,0.00,0.0,meteohub,2013-02-01 12:04:00,
2013-02-01 06:10:00,-13.7,-18.6,30.45,West,266,0.0,0.0,78,0.00,,,0.00,0.0,meteohub,2013-02-01 12:10:00,
2013-02-01 06:15:00,-13.7,-18.6,30.45,West,266,0.0,0.0,78,0.00,,,0.00,0.0,meteohub,2013-02-01 12:15:00,
2013-02-01 06:20:00,-13.7,-18.6,30.45,West,266,0.0,0.0,78,0.00,,,0.00,0.0,meteohub,2013-02-01 12:20:00,
2013-02-01 06:25:00,-13.7,-18.4,30.45,West,266,0.0,0.0,79,0.00,,,0.00,0.0,meteohub,2013-02-01 12:25:00,
2013-02-01 06:30:00,-13.9,-18.6,30.45,West,266,0.0,0.0,79,0.00,,,0.00,0.0,meteohub,2013-02-01 12:30:00,
2013-02-01 06:35:00,-13.9,-18.6,30.45,West,266,0.0,0.0,79,0.00,,,0.00,0.0,meteohub,2013-02-01 12:35:00,
2013-02-01 06:40:00,-13.9,-18.6,30.45,West,266,0.0,0.0,79,0.00,,,0.00,0.0,meteohub,2013-02-01 12:40:00,
2013-02-01 06:45:00,-13.9,-18.6,30.45,West,266,0.0,0.0,79,0.00,,,0.00,0.0,meteohub,2013-02-01 12:45:00,
2013-02-01 06:50:00,-13.9,-18.6,30.45,West,266,0.0,0.0,79,0.00,,,0.00,0.0,meteohub,2013-02-01 12:50:00,
2013-02-01 06:55:00,-14.1,-18.8,30.45,West,266,0.0,0.0,79,0.00,,,0.00,0.0,meteohub,2013-02-01 12:55:00,
2013-02-01 07:00:00,-13.9,-18.6,30.44,West,266,0.0,0.0,79,0.00,,,0.00,0.0,meteohub,2013-02-01 13:00:00,
2013-02-01 07:05:00,-13.9,-18.2,30.44,West,266,0.0,0.0,80,0.00,,,0.00,0.0,meteohub,2013-02-01 13:05:00,
2013-02-01 07:10:00,-13.9,-18.2,30.44,West,266,0.0,0.0,80,0.00,,,0.00,0.0,meteohub,2013-02-01 13:10:00,
2013-02-01 07:15:00,-13.9,-18.2,30.44,West,266,0.0,0.0,80,0.00,,,0.00,0.0,meteohub,2013-02-01 13:15:00,
2013-02-01 07:20:00,-13.9,-18.2,30.43,West,266,0.0,0.0,80,0.00,,,0.00,0.0,meteohub,2013-02-01 13:20:00,
2013-02-01 07:25:00,-13.7,-18.0,30.43,West,266,0.0,0.0,80,0.00,,,0.00,0.0,meteohub,2013-02-01 13:25:00,
2013-02-01 07:30:00,-13.7,-18.0,30.43,West,266,0.0,0.0,80,0.00,,,0.00,0.0,meteohub,2013-02-01 13:30:00,
2013-02-01 07:35:00,-13.5,-17.9,30.43,West,266,0.0,0.0,80,0.00,,,0.00,0.0,meteohub,2013-02-01 13:35:00,
2013-02-01 07:40:00,-13.4,-17.5,30.42,West,266,0.0,0.0,81,0.00,,,0.00,0.0,meteohub,2013-02-01 13:40:00,
2013-02-01 07:45:00,-13.2,-17.3,30.42,West,266,0.0,1.0,81,0.00,,,0.00,5.0,meteohub,2013-02-01 13:45:00,
2013-02-01 07:50:00,-12.8,-16.8,30.42,West,266,0.0,1.0,82,0.00,,,0.00,7.0,meteohub,2013-02-01 13:50:00,
2013-02-01 07:55:00,-12.6,-16.6,30.41,West,266,0.0,1.0,82,0.00,,,0.00,9.0,meteohub,2013-02-01 13:55:00,
2013-02-01 08:00:00,-12.5,-16.6,30.41,West,266,0.0,1.0,81,0.00,,,0.00,9.0,meteohub,2013-02-01 14:00:00,
2013-02-01 08:05:00,-12.3,-16.4,30.41,West,266,0.0,0.0,81,0.00,,,0.00,11.0,meteohub,2013-02-01 14:05:00,
2013-02-01 08:10:00,-12.5,-16.6,30.41,West,266,0.0,0.0,81,0.00,,,0.00,12.0,meteohub,2013-02-01 14:10:00,
2013-02-01 08:15:00,-12.5,-16.6,30.41,West,266,0.0,0.0,81,0.00,,,0.00,14.0,meteohub,2013-02-01 14:15:00,
2013-02-01 08:20:00,-12.5,-16.8,30.41,West,266,0.0,0.0,80,0.00,,,0.00,16.0,meteohub,2013-02-01 14:20:00,
2013-02-01 08:25:00,-12.5,-16.8,30.40,West,266,0.0,0.0,80,0.00,,,0.00,18.0,meteohub,2013-02-01 14:25:00,
2013-02-01 08:30:00,-12.5,-16.6,30.40,West,266,0.0,0.0,81,0.00,,,0.00,21.0,meteohub,2013-02-01 14:30:00,
2013-02-01 08:35:00,-12.5,-16.6,30.40,West,266,0.0,1.0,81,0.00,,,0.00,25.0,meteohub,2013-02-01 14:35:00,
2013-02-01 08:40:00,-12.5,-16.6,30.40,West,266,0.0,1.0,81,0.00,,,0.00,25.0,meteohub,2013-02-01 14:40:00,
2013-02-01 08:45:00,-12.1,-16.1,30.40,West,266,0.0,1.0,82,0.00,,,0.00,26.0,meteohub,2013-02-01 14:45:00,
2013-02-01 08:50:00,-11.9,-15.9,30.39,West,266,0.0,1.0,82,0.00,,,0.00,30.0,meteohub,2013-02-01 14:50:00,
2013-02-01 08:55:00,-11.7,-15.7,30.39,West,266,0.0,1.0,82,0.00,,,0.00,40.0,meteohub,2013-02-01 14:55:00,
2013-02-01 09:00:00,-10.7,-14.6,30.39,West,266,0.0,1.0,82,0.00,,,0.00,40.0,meteohub,2013-02-01 15:00:00,
2013-02-01 09:05:00,-10.1,-14.3,30.40,West,266,0.0,1.0,81,0.00,,,0.00,35.0,meteohub,2013-02-01 15:05:00,
2013-02-01 09:10:00,-9.9,-14.1,30.40,West,266,0.0,1.0,81,0.00,,,0.00,32.0,meteohub,2013-02-01 15:10:00,
2013-02-01 09:15:00,-9.8,-14.3,30.40,West,266,0.0,2.0,80,0.00,,,0.00,33.0,meteohub,2013-02-01 15:15:00,
2013-02-01 09:20:00,-9.6,-14.3,30.40,West,266,0.0,2.0,79,0.00,,,0.00,54.0,meteohub,2013-02-01 15:20:00,
2013-02-01 09:26:00,-9.0,-14.1,30.39,West,266,0.0,2.0,78,0.00,,,0.00,46.0,meteohub,2013-02-01 15:26:00,
2013-02-01 09:31:00,-8.7,-13.9,30.39,West,266,0.0,2.0,77,0.00,,,0.00,51.0,meteohub,2013-02-01 15:31:00,
2013-02-01 09:36:00,-8.3,-13.5,30.39,NW,306,1.0,1.0,77,0.00,,,0.00,74.0,meteohub,2013-02-01 15:36:00,
2013-02-01 09:41:00,-7.8,-13.4,30.39,NW,305,0.0,2.0,76,0.00,,,0.00,51.0,meteohub,2013-02-01 15:41:00,
2013-02-01 09:46:00,-7.4,-13.2,30.38,NW,305,1.0,2.0,75,0.00,,,0.00,49.0,meteohub,2013-02-01 15:46:00,
2013-02-01 09:51:00,-7.1,-12.8,30.38,NW,305,1.0,2.0,75,0.00,,,0.00,40.0,meteohub,2013-02-01 15:51:00,
2013-02-01 09:56:00,-6.3,-12.1,30.38,NW,305,0.0,2.0,75,0.00,,,0.00,40.0,meteohub,2013-02-01 15:56:00,
2013-02-01 10:01:00,-6.2,-12.3,30.38,WNW,283,0.0,3.0,74,0.00,,,0.00,39.0,meteohub,2013-02-01 16:01:00,
2013-02-01 10:06:00,-6.0,-12.5,30.38,South,186,2.0,3.0,73,0.00,,,0.00,53.0,meteohub,2013-02-01 16:06:00,
2013-02-01 10:11:00,-5.6,-12.3,30.38,South,171,1.0,4.0,72,0.00,,,0.00,114.0,meteohub,2013-02-01 16:11:00,
2013-02-01 10:16:00,-5.1,-11.7,30.38,WSW,257,0.0,4.0,72,0.00,,,0.00,120.0,meteohub,2013-02-01 16:16:00,
2013-02-01 10:21:00,-4.2,-11.2,30.37,South,188,2.0,4.0,71,0.00,,,0.00,163.0,meteohub,2013-02-01 16:21:00,
2013-02-01 10:26:00,-3.8,-11.4,30.37,SSE,161,0.0,4.0,69,0.00,,,0.00,211.0,meteohub,2013-02-01 16:26:00,
2013-02-01 10:31:00,-3.5,-10.8,30.37,NW,307,1.0,4.0,70,0.00,,,0.00,197.0,meteohub,2013-02-01 16:31:00,
2013-02-01 10:36:00,-3.3,-10.7,30.37,ESE,123,0.0,4.0,70,0.00,,,0.00,193.0,meteohub,2013-02-01 16:36:00,
2013-02-01 10:41:00,-2.7,-10.3,30.37,South,184,0.0,3.0,69,0.00,,,0.00,211.0,meteohub,2013-02-01 16:41:00,
2013-02-01 10:46:00,-2.7,-10.7,30.37,South,175,0.0,3.0,68,0.00,,,0.00,209.0,meteohub,2013-02-01 16:46:00,
2013-02-01 10:51:00,-2.7,-10.7,30.37,East,100,0.0,3.0,68,0.00,,,0.00,192.0,meteohub,2013-02-01 16:51:00,
2013-02-01 10:56:00,-2.6,-10.5,30.37,SSE,157,0.0,3.0,68,0.00,,,0.00,239.0,meteohub,2013-02-01 16:56:00,
2013-02-01 11:01:00,-2.4,-10.3,30.38,South,173,1.0,4.0,68,0.00,,,0.00,211.0,meteohub,2013-02-01 17:01:00,
2013-02-01 11:06:00,-2.0,-9.9,30.37,East,94,0.0,4.0,68,0.00,,,0.00,229.0,meteohub,2013-02-01 17:06:00,
2013-02-01 11:11:00,-1.8,-9.6,30.36,SSE,165,1.0,3.0,69,0.00,,,0.00,216.0,meteohub,2013-02-01 17:11:00,
2013-02-01 11:16:00,-1.7,-9.6,30.36,SSW,199,0.0,3.0,68,0.00,,,0.00,220.0,meteohub,2013-02-01 17:16:00,
2013-02-01 11:21:00,-1.5,-9.4,30.35,East,95,0.0,3.0,68,0.00,,,0.00,218.0,meteohub,2013-02-01 17:21:00,
2013-02-01 11:26:00,-1.1,-9.0,30.35,SSE,162,1.0,5.0,68,0.00,,,0.00,223.0,meteohub,2013-02-01 17:26:00,
2013-02-01 11:31:00,-0.9,-8.7,30.35,SSW,195,0.0,5.0,69,0.00,,,0.00,239.0,meteohub,2013-02-01 17:31:00,
2013-02-01 11:36:00,-0.6,-8.3,30.34,SW,230,0.0,4.0,69,0.00,,,0.00,221.0,meteohub,2013-02-01 17:36:00,
2013-02-01 11:41:00,-0.6,-8.7,30.34,ESE,103,1.0,6.0,68,0.00,,,0.00,246.0,meteohub,2013-02-01 17:41:00,
2013-02-01 11:46:00,0.0,-7.8,30.33,SSW,200,2.0,6.0,69,0.00,,,0.00,202.0,meteohub,2013-02-01 17:46:00,
2013-02-01 11:51:00,0.1,-7.6,30.32,SSW,195,0.0,6.0,69,0.00,,,0.00,200.0,meteohub,2013-02-01 17:51:00,
2013-02-01 11:56:00,0.5,-7.6,30.32,SSW,208,1.0,4.0,68,0.00,,,0.00,229.0,meteohub,2013-02-01 17:56:00,
2013-02-01 12:01:00,0.7,-7.4,30.32,WSW,238,3.0,5.0,68,0.00,,,0.00,250.0,meteohub,2013-02-01 18:01:00,
2013-02-01 12:06:00,0.9,-7.2,30.31,SSE,155,1.0,5.0,68,0.00,,,0.00,239.0,meteohub,2013-02-01 18:06:00,
2013-02-01 12:11:00,0.9,-7.2,30.31,NNW,342,1.0,5.0,68,0.00,,,0.00,214.0,meteohub,2013-02-01 18:11:00,
2013-02-01 12:16:00,1.0,-7.1,30.31,SE,131,1.0,6.0,68,0.00,,,0.00,200.0,meteohub,2013-02-01 18:16:00,
2013-02-01 12:21:00,1.4,-6.7,30.31,SW,234,1.0,6.0,68,0.00,,,0.00,223.0,meteohub,2013-02-01 18:21:00,
2013-02-01 12:26:00,1.8,-6.0,30.31,South,183,0.0,6.0,69,0.00,,,0.00,272.0,meteohub,2013-02-01 18:26:00,
2013-02-01 12:31:00,2.3,-5.6,30.30,NE,51,1.0,4.0,69,0.00,,,0.00,260.0,meteohub,2013-02-01 18:31:00,
2013-02-01 12:36:00,2.1,-6.0,30.30,SE,140,0.0,5.0,68,0.00,,,0.00,274.0,meteohub,2013-02-01 18:36:00,
2013-02-01 12:41:00,2.5,-5.4,30.30,East,98,0.0,5.0,69,0.00,,,0.00,227.0,meteohub,2013-02-01 18:41:00,
2013-02-01 12:46:00,2.7,-5.3,30.30,WNW,285,1.0,5.0,69,0.00,,,0.00,209.0,meteohub,2013-02-01 18:46:00,
2013-02-01 12:51:00,2.8,-5.1,30.29,WSW,251,2.0,6.0,69,0.00,,,0.00,221.0,meteohub,2013-02-01 18:51:00,
2013-02-01 12:56:00,3.4,-4.2,30.29,SE,136,2.0,6.0,70,0.00,,,0.00,271.0,meteohub,2013-02-01 18:56:00,
2013-02-01 13:01:00,3.9,-4.0,30.28,WSW,248,2.0,5.0,69,0.00,,,0.00,271.0,meteohub,2013-02-01 19:01:00,
2013-02-01 13:06:00,4.5,-3.5,30.27,SW,234,1.0,5.0,69,0.00,,,0.00,364.0,meteohub,2013-02-01 19:06:00,
2013-02-01 13:11:00,4.6,-3.6,30.27,ESE,102,0.0,4.0,68,0.00,,,0.00,197.0,meteohub,2013-02-01 19:11:00,
2013-02-01 13:17:00,4.5,-3.5,30.27,SSW,195,0.0,5.0,69,0.00,,,0.00,262.0,meteohub,2013-02-01 19:17:00,
2013-02-01 13:22:00,4.8,-3.1,30.27,ENE,68,0.0,5.0,69,0.00,,,0.00,320.0,meteohub,2013-02-01 19:22:00,
2013-02-01 13:27:00,4.8,-3.1,30.26,South,179,0.0,8.0,69,0.00,,,0.00,214.0,meteohub,2013-02-01 19:27:00,
2013-02-01 13:32:00,5.2,-3.1,30.26,SSE,153,1.0,8.0,68,0.00,,,0.00,388.0,meteohub,2013-02-01 19:32:00,
2013-02-01 13:37:00,5.5,-2.4,30.26,NNW,336,0.0,5.0,69,0.00,,,0.00,406.0,meteohub,2013-02-01 19:37:00,
2013-02-01 13:42:00,6.1,-1.8,30.25,South,169,2.0,5.0,69,0.00,,,0.00,200.0,meteohub,2013-02-01 19:42:00,
2013-02-01 13:47:00,5.7,-2.2,30.25,South,186,0.0,6.0,69,0.00,,,0.00,225.0,meteohub,2013-02-01 19:47:00,
2013-02-01 13:52:00,6.3,-1.5,30.25,NNW,342,0.0,6.0,70,0.00,,,0.00,255.0,meteohub,2013-02-01 19:52:00,
2013-02-01 13:57:00,7.2,-0.2,30.24,SE,132,0.0,6.0,71,0.00,,,0.00,281.0,meteohub,2013-02-01 19:57:00,
2013-02-01 14:02:00,7.2,-0.9,30.24,NW,311,0.0,4.0,69,0.00,,,0.00,223.0,meteohub,2013-02-01 20:02:00,
2013-02-01 14:07:00,7.3,-0.4,30.24,NW,321,1.0,5.0,70,0.00,,,0.00,204.0,meteohub,2013-02-01 20:07:00,
2013-02-01 14:12:00,7.5,-0.2,30.24,SSE,153,0.0,5.0,70,0.00,,,0.00,206.0,meteohub,2013-02-01 20:12:00,
2013-02-01 14:17:00,8.1,0.3,30.23,ESE,107,0.0,5.0,70,0.00,,,0.00,176.0,meteohub,2013-02-01 20:17:00,
2013-02-01 14:22:00,8.2,0.9,30.22,West,275,2.0,5.0,71,0.00,,,0.00,153.0,meteohub,2013-02-01 20:22:00,
2013-02-01 14:27:00,8.2,0.9,30.22,West,267,1.0,4.0,71,0.00,,,0.00,142.0,meteohub,2013-02-01 20:27:00,
2013-02-01 14:32:00,8.2,0.9,30.21,SSW,203,2.0,5.0,71,0.00,,,0.00,132.0,meteohub,2013-02-01 20:32:00,
2013-02-01 14:37:00,8.1,0.9,30.22,SSE,165,2.0,5.0,72,0.00,,,0.00,116.0,meteohub,2013-02-01 20:37:00,
2013-02-01 14:42:00,8.1,1.2,30.21,SSE,148,0.0,5.0,73,0.00,,,0.00,109.0,meteohub,2013-02-01 20:42:00,
2013-02-01 14:47:00,8.2,1.8,30.21,NNW,341,0.0,5.0,74,0.00,,,0.00,109.0,meteohub,2013-02-01 20:47:00,
2013-02-01 14:52:00,8.4,1.8,30.20,ESE,121,2.0,3.0,74,0.00,,,0.00,111.0,meteohub,2013-02-01 20:52:00,
2013-02-01 14:57:00,8.2,1.8,30.20,NNW,333,0.0,4.0,74,0.00,,,0.00,104.0,meteohub,2013-02-01 20:57:00,
2013-02-01 15:02:00,8.6,2.3,30.20,NE,39,1.0,4.0,75,0.00,,,0.00,93.0,meteohub,2013-02-01 21:02:00,
2013-02-01 15:07:00,8.4,2.5,30.19,NNW,348,1.0,4.0,76,0.00,,,0.00,95.0,meteohub,2013-02-01 21:07:00,
2013-02-01 15:12:00,8.6,2.7,30.19,ESE,109,1.0,4.0,76,0.00,,,0.00,91.0,meteohub,2013-02-01 21:12:00,
2013-02-01 15:17:00,8.8,2.8,30.19,SSW,193,0.0,5.0,76,0.00,,,0.00,90.0,meteohub,2013-02-01 21:17:00,
2013-02-01 15:22:00,9.0,3.0,30.19,East,100,2.0,5.0,76,0.00,,,0.00,72.0,meteohub,2013-02-01 21:22:00,
2013-02-01 15:27:00,8.8,2.8,30.18,SSE,149,0.0,5.0,76,0.00,,,0.00,60.0,meteohub,2013-02-01 21:27:00,
2013-02-01 15:32:00,9.0,3.2,30.18,ESE,122,1.0,3.0,77,0.00,,,0.00,81.0,meteohub,2013-02-01 21:32:00,
2013-02-01 15:37:00,9.0,3.2,30.17,NNE,17,1.0,4.0,77,0.00,,,0.00,88.0,meteohub,2013-02-01 21:37:00,
2013-02-01 15:42:00,9.0,3.2,30.17,South,190,1.0,4.0,77,0.00,,,0.00,69.0,meteohub,2013-02-01 21:42:00,
2013-02-01 15:47:00,9.1,3.4,30.17,NNW,339,0.0,5.0,77,0.00,,,0.00,63.0,meteohub,2013-02-01 21:47:00,
2013-02-01 15:52:00,9.1,3.7,30.17,NNW,340,0.0,5.0,78,0.00,,,0.00,51.0,meteohub,2013-02-01 21:52:00,
2013-02-01 15:57:00,9.0,3.6,30.17,NNW,332,1.0,5.0,78,0.00,,,0.00,56.0,meteohub,2013-02-01 21:57:00,
2013-02-01 16:02:00,9.0,3.7,30.17,NW,309,0.0,5.0,79,0.00,,,0.00,44.0,meteohub,2013-02-01 22:02:00,
2013-02-01 16:07:00,9.0,3.7,30.17,WSW,257,0.0,5.0,79,0.00,,,0.00,33.0,meteohub,2013-02-01 22:07:00,
2013-02-01 16:12:00,8.8,3.9,30.18,NW,323,0.0,5.0,80,0.00,,,0.00,32.0,meteohub,2013-02-01 22:12:00,
2013-02-01 16:17:00,8.8,4.1,30.18,North,350,1.0,5.0,81,0.00,,,0.00,25.0,meteohub,2013-02-01 22:17:00,
2013-02-01 16:22:00,8.6,3.9,30.18,SSE,155,0.0,5.0,81,0.00,,,0.00,30.0,meteohub,2013-02-01 22:22:00,
2013-02-01 16:27:00,8.8,4.1,30.17,NE,49,0.0,5.0,81,0.00,,,0.00,32.0,meteohub,2013-02-01 22:27:00,
2013-02-01 16:32:00,8.8,4.5,30.17,SE,137,0.0,4.0,82,0.00,,,0.00,32.0,meteohub,2013-02-01 22:32:00,
2013-02-01 16:37:00,8.8,4.5,30.17,ESE,121,0.0,5.0,82,0.00,,,0.00,32.0,meteohub,2013-02-01 22:37:00,
2013-02-01 16:42:00,9.0,4.6,30.17,NNE,15,0.0,5.0,82,0.00,,,0.00,32.0,meteohub,2013-02-01 22:42:00,
2013-02-01 16:47:00,9.1,4.8,30.17,SE,133,1.0,6.0,82,0.00,,,0.00,28.0,meteohub,2013-02-01 22:47:00,
2013-02-01 16:52:00,9.0,4.6,30.16,West,271,0.0,6.0,82,0.00,,,0.00,25.0,meteohub,2013-02-01 22:52:00,
2013-02-01 16:57:00,9.0,4.6,30.16,SSW,192,1.0,3.0,82,0.00,,,0.00,26.0,meteohub,2013-02-01 22:57:00,
2013-02-01 17:02:00,9.0,4.6,30.16,NE,44,0.0,7.0,82,0.00,,,0.00,18.0,meteohub,2013-02-01 23:02:00,
2013-02-01 17:07:00,9.0,4.8,30.15,NNW,346,0.0,7.0,83,0.00,,,0.00,14.0,meteohub,2013-02-01 23:07:00,
2013-02-01 17:12:00,9.0,4.8,30.15,SE,133,3.0,5.0,83,0.00,,,0.00,14.0,meteohub,2013-02-01 23:12:00,
2013-02-01 17:17:00,9.0,4.8,30.16,SSE,163,0.0,5.0,83,0.00,,,0.00,7.0,meteohub,2013-02-01 23:17:00,
2013-02-01 17:22:00,9.0,4.8,30.16,South,190,0.0,5.0,83,0.00,,,0.00,5.0,meteohub,2013-02-01 23:22:00,
2013-02-01 17:27:00,9.0,4.8,30.16,West,274,0.0,3.0,83,0.00,,,0.00,0.0,meteohub,2013-02-01 23:27:00,
2013-02-01 17:32:00,9.1,5.4,30.17,West,259,0.0,3.0,84,0.00,,,0.00,0.0,meteohub,2013-02-01 23:32:00,
2013-02-01 17:37:00,9.1,5.4,30.17,WNW,294,1.0,3.0,84,0.00,,,0.00,0.0,meteohub,2013-02-01 23:37:00,
2013-02-01 17:42:00,9.3,5.5,30.17,WSW,252,1.0,3.0,84,0.00,,,0.00,0.0,meteohub,2013-02-01 23:42:00,
2013-02-01 17:47:00,9.3,5.5,30.18,NNE,32,0.0,2.0,84,0.00,,,0.00,0.0,meteohub,2013-02-01 23:47:00,
2013-02-01 17:52:00,9.3,5.5,30.18,NNE,13,0.0,3.0,84,0.00,,,0.00,0.0,meteohub,2013-02-01 23:52:00,
2013-02-01 17:57:00,9.5,5.7,30.19,NE,38,2.0,3.0,84,0.00,,,0.00,0.0,meteohub,2013-02-01 23:57:00,
2013-02-01 18:02:00,9.5,5.7,30.17,East,87,0.0,3.0,84,0.00,,,0.00,0.0,meteohub,2013-02-02 00:02:00,
2013-02-01 18:07:00,9.3,5.5,30.17,WNW,303,0.0,3.0,84,0.00,,,0.00,0.0,meteohub,2013-02-02 00:07:00,
2013-02-01 18:12:00,9.5,5.7,30.17,ESE,103,0.0,3.0,84,0.00,,,0.00,0.0,meteohub,2013-02-02 00:12:00,
2013-02-01 18:17:00,9.5,5.7,30.17,NW,321,0.0,2.0,84,0.00,,,0.00,0.0,meteohub,2013-02-02 00:17:00,
2013-02-01 18:22:00,9.5,5.7,30.16,East,91,0.0,2.0,84,0.00,,,0.00,0.0,meteohub,2013-02-02 00:22:00,
2013-02-01 18:27:00,9.5,5.7,30.17,ESE,106,0.0,3.0,84,0.00,,,0.00,0.0,meteohub,2013-02-02 00:27:00,
2013-02-01 18:32:00,9.5,5.7,30.16,WSW,242,0.0,3.0,84,0.00,,,0.00,0.0,meteohub,2013-02-02 00:32:00,
2013-02-01 18:37:00,9.5,5.9,30.16,West,277,0.0,2.0,85,0.00,,,0.00,0.0,meteohub,2013-02-02 00:37:00,
2013-02-01 18:42:00,9.5,5.9,30.16,North,0,1.0,2.0,85,0.00,,,0.00,0.0,meteohub,2013-02-02 00:42:00,
2013-02-01 18:47:00,9.5,5.9,30.16,ESE,110,0.0,2.0,85,0.00,,,0.00,0.0,meteohub,2013-02-02 00:47:00,
2013-02-01 18:52:00,9.5,5.9,30.17,NE,41,0.0,2.0,85,0.00,,,0.00,0.0,meteohub,2013-02-02 00:52:00,
2013-02-01 18:57:00,9.5,5.9,30.17,NE,51,0.0,2.0,85,0.00,,,0.00,0.0,meteohub,2013-02-02 00:57:00,
2013-02-01 19:02:00,9.7,6.1,30.17,NE,49,0.0,2.0,85,0.00,,,0.00,0.0,meteohub,2013-02-02 01:02:00,
2013-02-01 19:07:00,9.7,6.1,30.17,NE,49,0.0,2.0,85,0.00,,,0.00,0.0,meteohub,2013-02-02 01:07:00,
2013-02-01 19:12:00,9.7,6.1,30.17,ENE,65,0.0,2.0,85,0.00,,,0.00,0.0,meteohub,2013-02-02 01:12:00,
2013-02-01 19:17:00,9.7,6.1,30.17,ENE,65,0.0,2.0,85,0.00,,,0.00,0.0,meteohub,2013-02-02 01:17:00,
2013-02-01 19:22:00,9.7,6.1,30.16,ENE,64,0.0,2.0,85,0.00,,,0.00,0.0,meteohub,2013-02-02 01:22:00,
2013-02-01 19:27:00,9.7,6.1,30.16,SE,129,0.0,2.0,85,0.00,,,0.00,0.0,meteohub,2013-02-02 01:27:00,
2013-02-01 19:32:00,9.7,6.1,30.16,NW,319,2.0,3.0,85,0.00,,,0.00,0.0,meteohub,2013-02-02 01:32:00,
2013-02-01 19:37:00,9.7,6.1,30.16,NW,306,0.0,3.0,85,0.00,,,0.00,0.0,meteohub,2013-02-02 01:37:00,
2013-02-01 19:42:00,9.9,6.3,30.16,NW,316,0.0,3.0,85,0.00,,,0.00,0.0,meteohub,2013-02-02 01:42:00,
2013-02-01 19:47:00,9.9,6.3,30.16,NW,310,1.0,3.0,85,0.00,,,0.00,0.0,meteohub,2013-02-02 01:47:00,
2013-02-01 19:52:00,9.9,6.3,30.16,East,84,0.0,2.0,85,0.00,,,0.00,0.0,meteohub,2013-02-02 01:52:00,
2013-02-01 19:57:00,9.9,6.3,30.16,ESE,109,0.0,2.0,85,0.00,,,0.00,0.0,meteohub,2013-02-02 01:57:00,
2013-02-01 20:02:00,9.9,6.3,30.16,SSE,152,0.0,2.0,85,0.00,,,0.00,0.0,meteohub,2013-02-02 02:02:00,
2013-02-01 20:07:00,9.9,6.3,30.16,East,83,0.0,2.0,85,0.00,,,0.00,0.0,meteohub,2013-02-02 02:07:00,
2013-02-01 20:12:00,9.9,6.3,30.16,ENE,62,0.0,1.0,85,0.00,,,0.00,0.0,meteohub,2013-02-02 02:12:00,
2013-02-01 20:17:00,10.0,6.4,30.16,SW,226,0.0,2.0,85,0.00,,,0.00,0.0,meteohub,2013-02-02 02:17:00,
2013-02-01 20:22:00,10.0,6.4,30.16,SW,226,0.0,2.0,85,0.00,,,0.00,0.0,meteohub,2013-02-02 02:22:00,
2013-02-01 20:27:00,10.0,6.4,30.16,WNW,288,0.0,2.0,85,0.00,,,0.00,0.0,meteohub,2013-02-02 02:27:00,
2013-02-01 20:32:00,10.0,6.4,30.16,WNW,288,0.0,2.0,85,0.00,,,0.00,0.0,meteohub,2013-02-02 02:32:00,
2013-02-01 20:37:00,10.0,6.4,30.16,WNW,288,0.0,2.0,85,0.00,,,0.00,0.0,meteohub,2013-02-02 02:37:00,
2013-02-01 20:42:00,10.0,6.4,30.16,WNW,288,0.0,1.0,85,0.00,,,0.00,0.0,meteohub,2013-02-02 02:42:00,
2013-02-01 20:47:00,10.0,6.4,30.16,WNW,288,0.0,0.0,85,0.00,,,0.00,0.0,meteohub,2013-02-02 02:47:00,
2013-02-01 20:52:00,10.0,6.4,30.17,WNW,288,0.0,0.0,85,0.00,,,0.00,0.0,meteohub,2013-02-02 02:52:00,
2013-02-01 20:57:00,10.0,6.4,30.17,WNW,288,0.0,0.0,85,0.00,,,0.00,0.0,meteohub,2013-02-02 02:57:00,
2013-02-01 21:02:00,10.0,6.4,30.17,WNW,288,0.0,2.0,85,0.00,,,0.00,0.0,meteohub,2013-02-02 03:02:00,
2013-02-01 21:07:00,10.0,6.4,30.16,WNW,288,0.0,2.0,85,0.00,,,0.00,0.0,meteohub,2013-02-02 03:07:00,
2013-02-01 21:12:00,10.0,6.4,30.16,WNW,288,0.0,2.0,85,0.00,,,0.00,0.0,meteohub,2013-02-02 03:12:00,
2013-02-01 21:17:00,10.0,6.4,30.16,WNW,288,0.0,1.0,85,0.00,,,0.00,0.0,meteohub,2013-02-02 03:17:00,
2013-02-01 21:22:00,10.0,6.4,30.16,ENE,69,0.0,2.0,85,0.00,,,0.00,0.0,meteohub,2013-02-02 03:22:00,
2013-02-01 21:27:00,10.2,6.6,30.16,NNE,24,0.0,2.0,85,0.00,,,0.00,0.0,meteohub,2013-02-02 03:27:00,
2013-02-01 21:32:00,10.0,6.4,30.16,NNE,24,0.0,2.0,85,0.00,,,0.00,0.0,meteohub,2013-02-02 03:32:00,
2013-02-01 21:37:00,10.0,6.4,30.17,NNE,24,0.0,1.0,85,0.00,,,0.00,0.0,meteohub,2013-02-02 03:37:00,
2013-02-01 21:42:00,10.0,6.4,30.16,NNE,24,0.0,2.0,85,0.00,,,0.00,0.0,meteohub,2013-02-02 03:42:00,
2013-02-01 21:47:00,10.0,6.4,30.17,NNE,24,0.0,2.0,85,0.00,,,0.00,0.0,meteohub,2013-02-02 03:47:00,
2013-02-01 21:52:00,10.0,6.4,30.17,NNE,24,0.0,1.0,85,0.00,,,0.00,0.0,meteohub,2013-02-02 03:52:00,
2013-02-01 21:57:00,10.0,6.6,30.17,NNE,24,0.0,1.0,86,0.00,,,0.00,0.0,meteohub,2013-02-02 03:57:00,
2013-02-01 22:02:00,10.0,6.4,30.17,NNE,24,2.0,2.0,85,0.00,,,0.00,0.0,meteohub,2013-02-02 04:02:00,
2013-02-01 22:07:00,9.9,6.3,30.17,NNE,24,0.0,2.0,85,0.00,,,0.00,0.0,meteohub,2013-02-02 04:07:00,
2013-02-01 22:12:00,9.9,6.3,30.18,NNE,24,0.0,2.0,85,0.00,,,0.00,0.0,meteohub,2013-02-02 04:12:00,
2013-02-01 22:17:00,9.9,6.3,30.18,NNE,24,0.0,2.0,85,0.00,,,0.00,0.0,meteohub,2013-02-02 04:17:00,
2013-02-01 22:22:00,9.9,6.3,30.18,NNE,24,0.0,0.0,85,0.00,,,0.00,0.0,meteohub,2013-02-02 04:22:00,
2013-02-01 22:27:00,9.7,6.1,30.18,NNE,24,0.0,0.0,85,0.00,,,0.00,0.0,meteohub,2013-02-02 04:27:00,
2013-02-01 22:32:00,9.7,6.1,30.18,NE,50,0.0,1.0,85,0.00,,,0.00,0.0,meteohub,2013-02-02 04:32:00,
2013-02-01 22:37:00,9.7,6.1,30.19,NE,49,0.0,2.0,85,0.00,,,0.00,0.0,meteohub,2013-02-02 04:37:00,
2013-02-01 22:42:00,9.7,6.1,30.19,NE,49,1.0,3.0,85,0.00,,,0.00,0.0,meteohub,2013-02-02 04:42:00,
2013-02-01 22:47:00,9.5,5.9,30.19,North,0,0.0,3.0,85,0.00,,,0.00,0.0,meteohub,2013-02-02 04:47:00,
2013-02-01 22:52:00,9.5,6.1,30.19,NNE,21,1.0,3.0,86,0.00,,,0.00,0.0,meteohub,2013-02-02 04:52:00,
2013-02-01 22:57:00,9.5,6.1,30.19,North,5,0.0,2.0,86,0.00,,,0.00,0.0,meteohub,2013-02-02 04:57:00,
2013-02-01 23:00:00,9.5,6.1,30.19,North,5,0.0,2.0,86,0.00,,,0.00,0.0,meteohub,2013-02-02 05:00:00,
2013-02-01 23:05:00,9.3,5.9,30.19,NNW,339,0.0,2.0,86,0.00,,,0.00,0.0,meteohub,2013-02-02 05:05:00,
2013-02-01 23:10:00,9.3,5.7,30.20,NNE,29,1.0,3.0,85,0.00,,,0.00,0.0,meteohub,2013-02-02 05:10:00,
2013-02-01 23:15:00,9.1,5.5,30.20,NNE,29,0.0,3.0,85,0.00,,,0.00,0.0,meteohub,2013-02-02 05:15:00,
2013-02-01 23:21:00,9.1,5.5,30.20,NW,316,0.0,3.0,85,0.00,,,0.00,0.0,meteohub,2013-02-02 05:21:00,
2013-02-01 23:26:00,9.1,5.5,30.21,NW,316,0.0,2.0,85,0.00,,,0.00,0.0,meteohub,2013-02-02 05:26:00,
2013-02-01 23:31:00,9.1,5.5,30.21,NNE,21,0.0,2.0,85,0.00,,,0.00,0.0,meteohub,2013-02-02 05:31:00,
2013-02-01 23:36:00,9.0,5.4,30.21,WNW,294,0.0,1.0,85,0.00,,,0.00,0.0,meteohub,2013-02-02 05:36:00,
2013-02-01 23:41:00,9.0,5.4,30.21,NNW,332,0.0,2.0,85,0.00,,,0.00,0.0,meteohub,2013-02-02 05:41:00,
2013-02-01 23:46:00,8.8,5.2,30.21,NNW,332,0.0,2.0,85,0.00,,,0.00,0.0,meteohub,2013-02-02 05:46:00,
2013-02-01 23:51:00,8.6,5.0,30.21,NNW,332,0.0,2.0,85,0.00,,,0.00,0.0,meteohub,2013-02-02 05:51:00,
2013-02-01 23:56:00,8.4,4.8,30.21,NNW,329,0.0,2.0,85,0.00,,,0.00,0.0,meteohub,2013-02-02 05:56:00,